CYGFM04 (41885 NORAD) Tracking and Keplerian Element Data

This shows tracking and keplerian element data for the satellite.

Feedback or suggestion? Click here.




ElementValue
Catalog41885
NameCYGFM04
Epoch Orbit43416
Epoch Day286.61522467
Epoch Year2024
RAAN258.5845
Inclination34.9384
Eccentricity0.001115
Argument of Perigee214.9042
Mean Anonmoly145.0944
Mean Motion15.3200694
Decay Rate0.00019726
L11 41885U 16078B 24286.61522467 .00019726 00000+0 62034-3 0 9995
L22 41885 34.9384 258.5845 0011150 214.9042 145.0944 15.32006940434161



Live tracking and technical data element details for CYGFM04 (NORAD 41885). CYGFM04 can be tracked NOW for your location showing map with azimuth and elevation plus other details from your city location.







IsCatalogInMostPopularTable: catalog: 41885, numindb: 592
Update: records affected: 1



GetName: 41885 CYGFM04

Hit Count: updated at: Tue, 03 Dec 2024 03:36:21 GMT